Overview Statistics Trail Chart Weather Telemetry Raw packets
 

This is the latest recevied weather packets stored in our database for station/object VO2AGO. If no packets are shown the sender has not sent any weather packets the latest 10 day(s).

<< 21 22 23 24 25 26 27 >>
Time Temp. Humidity Pressure Rain* Wind** Luminosity Snow
1777908949 4.44° C - - - 0 m/s 895 W/m² -
1777908500 4.44° C - - - 0 m/s 799 W/m² -
1777908050 4.44° C - - - 0 m/s 953 W/m² -
1777907600 4.44° C - - - 0 m/s 799 W/m² -
1777907150 4.44° C - - - 0 m/s 819 W/m² -
1777906700 4.44° C - - - 0 m/s 698 W/m² -
1777906250 5° C - - - 0 m/s 1116 W/m² -
1777905799 4.44° C - - - 0 m/s 1651 W/m² -
1777905349 3.89° C - - - 0 m/s 1093 W/m² -
1777904900 3.89° C - - - 0 m/s 919 W/m² -
1777904468 3.89° C - - - 0 m/s 854 W/m² -
1777904000 3.33° C - - - 0 m/s 846 W/m² -
1777903550 3.33° C - - - 0 m/s 837 W/m² -
1777903508 2.78° C - - - 0 m/s 768 W/m² -
1777903508 2.78° C - - - 0 m/s 656 W/m² -
1777902199 2.78° C - - - 0 m/s 603 W/m² -
1777901750 2.78° C - - - 0 m/s 413 W/m² -
1777901300 3.33° C - - - 0 m/s 540 W/m² -
1777900850 2.78° C - - - 0 m/s 570 W/m² -
1777900400 2.78° C - - - 0 m/s 525 W/m² -
1777899950 2.78° C - - - 0 m/s 470 W/m² -
1777899499 2.78° C - - - 0 m/s 455 W/m² -
1777899050 3.33° C - - - 0 m/s 490 W/m² -
1777898600 3.33° C - - - 0 m/s 572 W/m² -
1777898150 3.33° C - - - 0 m/s 638 W/m² -

* Rain since midnight (hover to see other rain measurements)
** Current wind speed in m/s (hover to see current wind gust speed)